Big Rapids, MI

2:55 AM EST on December 15, 2019 (GMT -0500)
Roben-Hood

Weather History for KRQB - May, 2019

Change the Weather History Date:

Monday, May 27, 2019

  Actual Average Record
Temperature  
Mean Temperature 60 °F -  
Max Temperature 71 °F 72 °F 91 °F (2018)
Min Temperature 50 °F 46 °F 30 °F (1992)
Degree Days  
Heating Degree Days 4    
Growing Degree Days 10 (Base 50)    
Moisture  
Dew Point 50 °F    
Average Humidity 72    
Maximum Humidity 94    
Minimum Humidity 44    
Precipitation  
Precipitation 0.26 in - - ()
Sea Level Pressure  
Sea Level Pressure 29.97 in    
Wind  
Wind Speed 5 mph (SE)    
Max Wind Speed 18 mph    
Max Gust Speed 28 mph    
Visibility 10 miles    
Events Rain    
Averages and records for this station are not official NWS values.
T = Trace of Precipitation, MM = Missing Value Source: NWS Daily Summary

Daily Weather History Graph

Daily Weather History Graph

Search for Another Location

Airport or City:

Astronomy

May. 27, 2019 Rise Set
Actual Time 6:06 AM EDT 9:12 PM EDT
Civil Twilight 5:31 AM EDT 9:47 PM EDT
Nautical Twilight 4:47 AM EDT 10:31 PM EDT
Astronomical Twilight 3:54 AM EDT 11:25 PM EDT
Moon 3:06 AM EDT (5/27) 2:08 PM EDT (5/27)
Length of Visible Light 16h 15m
Length of Day
15h 06m
Last Quarter, 41% of the Moon is Illuminated
May 27
Last Quarter
Jun 3
New
Jun 10
First Quarter
Jun 17
Full
Jun 25
Last Quarter

Hourly Weather History & Observations

Time (EDT) Temp. Dew Point Humidity Pressure Visibility Wind Dir Wind Speed Gust Speed Precip Events Conditions
12:15 AM 56.5 °F 47.8 °F 73% 30.09 in 10.0 mi Calm Calm - N/A   Clear
12:16 AM 56.5 °F 47.8 °F 73% 30.09 in 10.0 mi Calm Calm - N/A   Clear
12:35 AM 56.1 °F 48.0 °F 74% 30.08 in 10.0 mi Calm Calm - N/A   Clear
12:36 AM 56.1 °F 48.0 °F 74% 30.07 in 10.0 mi Calm Calm - N/A   Clear
12:55 AM 56.7 °F 47.5 °F 71% 30.07 in 10.0 mi Calm Calm - N/A   Clear
12:56 AM 56.7 °F 47.5 °F 71% 30.07 in 10.0 mi Calm Calm - N/A   Clear
1:15 AM 55.9 °F 47.3 °F 73% 30.07 in 10.0 mi Calm Calm - N/A   Clear
1:35 AM 56.1 °F 47.3 °F 72% 30.07 in 10.0 mi Calm Calm - N/A   Clear
1:36 AM 56.1 °F 47.3 °F 72% 30.07 in 10.0 mi Calm Calm - N/A   Clear
1:55 AM 53.1 °F 46.8 °F 79% 30.09 in 10.0 mi Calm Calm - N/A   Clear
1:56 AM 52.9 °F 46.9 °F 80% 30.09 in 10.0 mi Calm Calm - N/A   Clear
2:15 AM 54.0 °F 47.8 °F 80% 30.08 in 10.0 mi Calm Calm - N/A   Mostly Cloudy
2:35 AM 52.7 °F 48.0 °F 84% 30.07 in 10.0 mi Calm Calm - N/A   Mostly Cloudy
2:55 AM 53.1 °F 47.7 °F 82% 30.07 in 10.0 mi Calm Calm - N/A   Overcast
2:56 AM 53.1 °F 47.5 °F 81% 30.07 in 10.0 mi Calm Calm - N/A   Mostly Cloudy
3:15 AM 52.0 °F 47.5 °F 85% 30.07 in 10.0 mi Calm Calm - N/A   Scattered Clouds
3:35 AM 53.6 °F 47.3 °F 79% 30.06 in 10.0 mi Calm Calm - N/A   Scattered Clouds
3:55 AM 52.0 °F 45.7 °F 79% 30.06 in 10.0 mi Calm Calm - N/A   Scattered Clouds
3:56 AM 51.8 °F 45.7 °F 80% 30.06 in 10.0 mi Calm Calm - N/A   Scattered Clouds
4:15 AM 51.8 °F 46.6 °F 82% 30.06 in 10.0 mi Calm Calm - N/A   Scattered Clouds
4:35 AM 51.4 °F 46.4 °F 83% 30.06 in 10.0 mi Calm Calm - N/A   Scattered Clouds
4:55 AM 52.2 °F 45.9 °F 79% 30.07 in 10.0 mi WSW 3.5 mph - N/A   Clear
5:15 AM 51.3 °F 46.6 °F 84% 30.06 in 10.0 mi Calm Calm - N/A   Clear
5:16 AM 51.4 °F 46.6 °F 83% 30.06 in 10.0 mi Calm Calm - N/A   Clear
5:35 AM 51.6 °F 46.6 °F 83% 30.06 in 10.0 mi Calm Calm - N/A   Clear
5:36 AM 51.6 °F 46.6 °F 83% 30.06 in 10.0 mi Calm Calm - N/A   Clear
5:55 AM 50.0 °F 45.7 °F 85% 30.07 in 10.0 mi Calm Calm - N/A   Clear
6:15 AM 50.0 °F 46.9 °F 89% 30.07 in 10.0 mi Calm Calm - N/A   Clear
6:35 AM 50.7 °F 47.1 °F 87% 30.07 in 10.0 mi Calm Calm - N/A   Scattered Clouds
6:36 AM 50.7 °F 46.9 °F 87% 30.07 in 10.0 mi Calm Calm - N/A   Mostly Cloudy
6:55 AM 50.4 °F 47.3 °F 89% 30.07 in 10.0 mi Calm Calm - N/A   Mostly Cloudy
7:15 AM 52.3 °F 48.4 °F 86% 30.08 in 10.0 mi Calm Calm - N/A   Overcast
7:35 AM 53.4 °F 50.0 °F 88% 30.08 in 10.0 mi Calm Calm - N/A   Mostly Cloudy
7:56 AM 56.3 °F 50.5 °F 81% 30.09 in 10.0 mi Calm Calm - N/A   Mostly Cloudy
8:15 AM 58.8 °F 50.5 °F 74% 30.09 in 10.0 mi East 3.5 mph - N/A   Mostly Cloudy
8:35 AM 61.0 °F 51.1 °F 70% 30.09 in 10.0 mi SE 4.6 mph - N/A   Mostly Cloudy
8:55 AM 62.4 °F 51.3 °F 67% 30.09 in 10.0 mi SE 6.9 mph - N/A   Mostly Cloudy
8:56 AM 62.6 °F 51.3 °F 66% 30.09 in 10.0 mi SE 6.9 mph - N/A   Mostly Cloudy
9:15 AM 63.1 °F 49.1 °F 60% 30.09 in 10.0 mi SE 13.8 mph 25.3 mph N/A   Mostly Cloudy
9:16 AM 63.1 °F 49.3 °F 61% 30.09 in 10.0 mi SE 16.1 mph 25.3 mph N/A   Mostly Cloudy
9:35 AM 64.6 °F 49.3 °F 58% 30.08 in 10.0 mi ESE 17.3 mph 23.0 mph N/A   Mostly Cloudy
9:36 AM 64.6 °F 49.3 °F 58% 30.08 in 10.0 mi ESE 16.1 mph 23.0 mph N/A   Mostly Cloudy
9:55 AM 65.3 °F 50.5 °F 59% 30.08 in 10.0 mi SSE 13.8 mph 18.4 mph N/A   Scattered Clouds
10:16 AM 65.5 °F 52.3 °F 62% 30.07 in 10.0 mi SSE 9.2 mph - N/A   Clear
10:35 AM 67.1 °F 52.9 °F 60% 30.06 in 10.0 mi South 13.8 mph - N/A   Clear
10:36 AM 67.1 °F 52.9 °F 60% 30.06 in 10.0 mi South 12.7 mph - N/A   Clear
10:55 AM 67.8 °F 53.1 °F 59% 30.04 in 10.0 mi SSE 15.0 mph - N/A   Clear
11:15 AM 67.5 °F 52.9 °F 59% 30.04 in 10.0 mi SSE 12.7 mph 23.0 mph N/A   Scattered Clouds
11:35 AM 67.6 °F 53.4 °F 60% 30.02 in 10.0 mi SSE 13.8 mph 18.4 mph N/A   Scattered Clouds
11:36 AM 67.8 °F 53.4 °F 60% 30.03 in 10.0 mi South 13.8 mph 18.4 mph N/A   Scattered Clouds
11:55 AM 68.5 °F 54.1 °F 60% 30.03 in 10.0 mi SSE 9.2 mph 19.6 mph N/A   Scattered Clouds
12:15 PM 69.6 °F 53.4 °F 56% 30.03 in 10.0 mi SSE 9.2 mph - N/A   Mostly Cloudy
12:35 PM 69.8 °F 52.7 °F 54% 30.03 in 10.0 mi South 11.5 mph 21.9 mph N/A   Mostly Cloudy
12:55 PM 69.4 °F 52.9 °F 56% 30.03 in 10.0 mi South 9.2 mph 17.3 mph N/A   Overcast
12:56 PM 69.3 °F 53.1 °F 56% 30.03 in 10.0 mi South 8.1 mph 17.3 mph N/A   Overcast
1:15 PM 69.6 °F 52.7 °F 55% 30.02 in 10.0 mi SSE 9.2 mph 19.6 mph N/A   Mostly Cloudy
1:35 PM 70.5 °F 52.7 °F 53% 30.00 in 10.0 mi SSE 15.0 mph 18.4 mph N/A   Mostly Cloudy
1:36 PM 70.7 °F 52.5 °F 52% 30.00 in 10.0 mi SE 13.8 mph 18.4 mph N/A   Mostly Cloudy
1:55 PM 70.2 °F 51.3 °F 51% 29.99 in 10.0 mi SSE 13.8 mph 18.4 mph N/A   Scattered Clouds
1:56 PM 70.2 °F 51.1 °F 51% 29.99 in 10.0 mi SE 13.8 mph - N/A   Scattered Clouds
2:15 PM 71.4 °F 50.4 °F 47% 29.98 in 10.0 mi SSE 13.8 mph 20.7 mph N/A   Clear
2:35 PM 71.6 °F 48.6 °F 44% 29.99 in 10.0 mi South 10.4 mph 16.1 mph N/A   Scattered Clouds
2:36 PM 71.6 °F 48.4 °F 44% 29.99 in 10.0 mi South 8.1 mph 16.1 mph N/A   Scattered Clouds
2:55 PM 71.4 °F 48.6 °F 44% 29.99 in 10.0 mi South 10.4 mph 20.7 mph N/A   Scattered Clouds
2:56 PM 71.2 °F 48.7 °F 45% 29.99 in 10.0 mi South 11.5 mph 20.7 mph N/A   Scattered Clouds
3:15 PM 70.3 °F 49.6 °F 48% 29.98 in 10.0 mi SSE 11.5 mph 16.1 mph N/A   Scattered Clouds
3:35 PM 70.7 °F 50.5 °F 49% 29.96 in 10.0 mi SSE 10.4 mph - N/A   Mostly Cloudy
3:55 PM 70.7 °F 50.2 °F 48% 29.94 in 10.0 mi SE 12.7 mph - N/A   Mostly Cloudy
3:56 PM 70.7 °F 50.2 °F 48% 29.94 in 10.0 mi SE 13.8 mph - N/A   Mostly Cloudy
4:15 PM 70.7 °F 50.4 °F 48% 29.93 in 10.0 mi South 9.2 mph 18.4 mph N/A   Mostly Cloudy
4:35 PM 70.3 °F 49.8 °F 48% 29.92 in 10.0 mi SE 12.7 mph 17.3 mph N/A   Mostly Cloudy
4:55 PM 69.1 °F 51.3 °F 53% 29.91 in 10.0 mi ESE 11.5 mph 16.1 mph N/A Rain Light Rain
4:56 PM 68.9 °F 51.1 °F 53% 29.90 in 10.0 mi SE 10.4 mph 16.1 mph N/A Rain Light Rain
5:15 PM 68.4 °F 51.1 °F 54% 29.88 in 10.0 mi SE 13.8 mph - N/A   Overcast
5:35 PM 68.2 °F 51.1 °F 54% 29.88 in 10.0 mi ESE 8.1 mph - N/A   Overcast
5:55 PM 66.2 °F 54.3 °F 65% 29.85 in 10.0 mi East 11.5 mph 21.9 mph N/A Rain Light Rain
5:56 PM 66.2 °F 54.3 °F 65% 29.85 in 10.0 mi East 11.5 mph 21.9 mph N/A Rain Light Rain
6:15 PM 66.0 °F 54.0 °F 65% 29.85 in 10.0 mi ESE 18.4 mph 27.6 mph N/A   Overcast
6:16 PM 65.8 °F 54.0 °F 65% 29.85 in 10.0 mi ESE 18.4 mph 27.6 mph N/A   Overcast
6:35 PM 64.6 °F 53.6 °F 68% 29.83 in 10.0 mi ESE 16.1 mph 25.3 mph N/A   Overcast
6:55 PM 62.8 °F 52.9 °F 70% 29.86 in 10.0 mi ESE 16.1 mph 23.0 mph N/A Rain Light Rain
6:56 PM 62.6 °F 52.9 °F 70% 29.86 in 10.0 mi ESE 15.0 mph 23.0 mph N/A Rain Light Rain
7:15 PM 60.1 °F 53.4 °F 79% 29.85 in 7.0 mi ESE 12.7 mph - 0.02 in Rain Rain
7:16 PM 59.9 °F 53.6 °F 80% 29.84 in 7.0 mi ESE 11.5 mph - 0.02 in Rain Rain
7:35 PM 58.1 °F 53.4 °F 84% 29.84 in 10.0 mi ESE 10.4 mph - 0.04 in Rain Light Rain
7:55 PM 57.0 °F 52.9 °F 86% 29.85 in 10.0 mi ESE 3.5 mph - 0.06 in Rain Rain
7:56 PM 56.8 °F 52.7 °F 86% 29.85 in 7.0 mi East 5.8 mph - 0.06 in Rain Rain
8:15 PM 54.9 °F 51.3 °F 88% 29.84 in 7.0 mi East 13.8 mph - 0.02 in Rain Light Rain
8:16 PM 54.7 °F 51.3 °F 88% 29.84 in 7.0 mi East 13.8 mph - 0.02 in Rain Light Rain
8:35 PM 54.0 °F 51.1 °F 90% 29.82 in 4.0 mi East 11.5 mph 16.1 mph 0.07 in   Overcast
8:55 PM 53.2 °F 50.9 °F 92% 29.82 in 4.0 mi East 13.8 mph 18.4 mph 0.11 in   Overcast
9:15 PM 52.9 °F 50.9 °F 93% 29.83 in 10.0 mi East 10.4 mph - 0.01 in Rain Light Rain
9:16 PM 52.9 °F 50.9 °F 93% 29.83 in 10.0 mi East 10.4 mph - 0.01 in Rain Light Rain
9:35 PM 52.9 °F 50.9 °F 93% 29.81 in 5.0 mi East 12.7 mph - 0.06 in Rain Light Rain
9:36 PM 52.9 °F 50.9 °F 93% 29.81 in 5.0 mi ESE 12.7 mph - 0.06 in Rain Light Rain
9:55 PM 52.7 °F 50.9 °F 94% 29.80 in 7.0 mi ESE 15.0 mph 20.7 mph 0.08 in Rain Light Rain
10:15 PM 52.7 °F 50.9 °F 94% 29.80 in 10.0 mi ESE 11.5 mph 17.3 mph N/A   Overcast
10:16 PM 52.7 °F 50.9 °F 94% 29.79 in 10.0 mi ESE 10.4 mph 19.6 mph N/A   Overcast
10:35 PM 52.9 °F 51.1 °F 94% 29.78 in 10.0 mi ESE 10.4 mph - N/A   Overcast
10:36 PM 52.9 °F 51.1 °F 94% 29.79 in 10.0 mi ESE 10.4 mph - N/A   Overcast
10:55 PM 52.9 °F 51.1 °F 94% 29.77 in 10.0 mi ESE 13.8 mph 23.0 mph N/A   Overcast
11:15 PM 53.1 °F 51.3 °F 94% 29.75 in 10.0 mi ESE 15.0 mph 19.6 mph N/A   Overcast
11:16 PM 53.1 °F 51.3 °F 94% 29.76 in 10.0 mi ESE 13.8 mph 19.6 mph N/A   Overcast
11:35 PM 53.2 °F 51.4 °F 94% 29.75 in 10.0 mi ESE 11.5 mph 20.7 mph N/A   Overcast
11:36 PM 53.2 °F 51.4 °F 94% 29.75 in 10.0 mi ESE 10.4 mph 20.7 mph N/A   Overcast
11:55 PM 53.2 °F 51.4 °F 94% 29.74 in 10.0 mi ESE 11.5 mph 17.3 mph 0.01 in Rain Light Rain